TimeEDT,TemperatureF,Dew PointF,Humidity,Sea Level PressureIn,VisibilityMPH,Wind Direction,Wind SpeedMPH,Gust SpeedMPH,PrecipitationIn,Events,Conditions,WindDirDegrees,DateUTC
12:53 AM,32.0,19.9,61,29.93,10.0,SSW,11.5,-,N/A,,Scattered Clouds,200,2013-04-05 04:53:00
1:53 AM,32.0,19.0,59,29.92,10.0,WSW,6.9,-,N/A,,Scattered Clouds,240,2013-04-05 05:53:00
2:53 AM,33.1,21.0,61,29.93,10.0,Calm,Calm,-,N/A,,Mostly Cloudy,0,2013-04-05 06:53:00
3:53 AM,34.0,23.0,64,29.92,10.0,Calm,Calm,-,N/A,,Overcast,0,2013-04-05 07:53:00
4:53 AM,35.1,21.9,59,29.94,10.0,Calm,Calm,-,N/A,,Overcast,0,2013-04-05 08:53:00
5:53 AM,32.0,23.0,69,29.96,10.0,WSW,3.5,-,N/A,,Overcast,240,2013-04-05 09:53:00
6:53 AM,30.0,21.9,72,29.98,10.0,WNW,4.6,-,N/A,,Clear,290,2013-04-05 10:53:00
7:04 AM,28.4,21.2,74,29.94,10.0,NW,4.6,-,N/A,,Scattered Clouds,320,2013-04-05 11:04:00
7:53 AM,33.1,26.1,75,30.00,10.0,West,4.6,-,N/A,,Clear,280,2013-04-05 11:53:00
8:53 AM,37.9,24.1,57,30.01,10.0,NW,11.5,-,N/A,,Partly Cloudy,320,2013-04-05 12:53:00
9:53 AM,39.0,25.0,57,30.02,10.0,WNW,13.8,-,N/A,,Partly Cloudy,300,2013-04-05 13:53:00
10:53 AM,39.0,25.0,57,30.04,10.0,NW,9.2,-,N/A,,Scattered Clouds,310,2013-04-05 14:53:00
11:50 AM,41.0,26.6,57,30.01,10.0,NNW,13.8,-,N/A,,Mostly Cloudy,330,2013-04-05 15:50:00
11:53 AM,41.0,26.1,55,30.05,10.0,NNW,18.4,-,N/A,,Mostly Cloudy,330,2013-04-05 15:53:00
12:53 PM,41.0,25.0,53,30.06,10.0,NW,15.0,-,N/A,,Mostly Cloudy,310,2013-04-05 16:53:00
1:53 PM,41.0,21.0,45,30.05,10.0,NNW,15.0,-,N/A,,Mostly Cloudy,330,2013-04-05 17:53:00
2:53 PM,39.9,23.0,51,30.06,10.0,NW,16.1,25.3,N/A,,Mostly Cloudy,310,2013-04-05 18:53:00
3:03 PM,39.2,24.8,56,30.02,10.0,NW,15.0,23.0,0.00,,Unknown,320,2013-04-05 19:03:00
3:48 PM,41.0,19.4,42,30.02,10.0,NW,18.4,23.0,0.00,,Mostly Cloudy,320,2013-04-05 19:48:00
3:53 PM,41.0,19.0,41,30.05,10.0,NW,17.3,23.0,0.00,,Mostly Cloudy,320,2013-04-05 19:53:00
4:53 PM,39.9,19.0,43,30.06,10.0,NNW,15.0,23.0,N/A,,Mostly Cloudy,330,2013-04-05 20:53:00
5:53 PM,39.0,18.0,43,30.08,10.0,NNW,16.1,-,N/A,,Mostly Cloudy,330,2013-04-05 21:53:00
6:53 PM,37.0,19.0,48,30.11,10.0,North,10.4,-,N/A,,Mostly Cloudy,350,2013-04-05 22:53:00
7:53 PM,34.0,17.1,50,30.13,10.0,North,10.4,-,N/A,,Scattered Clouds,350,2013-04-05 23:53:00
8:53 PM,32.0,17.1,54,30.16,10.0,NNW,8.1,-,N/A,,Partly Cloudy,340,2013-04-06 00:53:00
9:53 PM,30.9,15.1,52,30.19,10.0,NNW,6.9,-,N/A,,Clear,340,2013-04-06 01:53:00
10:53 PM,30.0,15.1,54,30.20,10.0,NNW,8.1,-,N/A,,Clear,340,2013-04-06 02:53:00
11:53 PM,28.9,16.0,58,30.21,10.0,NNW,6.9,-,N/A,,Clear,340,2013-04-06 03:53:00